Weather History for Scottsbluff, NE

Change the Weather History Date:

Wednesday, June 26, 2013

  Actual Average Record
Temperature  
Mean Temperature 76 °F 71 °F  
Max Temperature 98 °F 86 °F 106 °F (2012)
Min Temperature 54 °F 55 °F 40 °F (1958)
Degree Days  
Heating Degree Days 0 1  
Month to date heating degree days 21 56  
Since 1 June heating degree days 21 56  
Since 1 July heating degree days 6306 6611  
Cooling Degree Days 11 6  
Month to date cooling degree days 151 98  
Year to date cooling degree days 205 121  
Since 1 June cooling degree days 151 98  
Growing Degree Days 28 (Base 50)    
Moisture  
Dew Point 52 °F    
Average Humidity 52    
Maximum Humidity 87    
Minimum Humidity 17    
Precipitation  
Precipitation 0.00 in 0.08 in 1.40 in (1907)
Month to date precipitation 1.54 2.57  
Year to date precipitation 6.18 8.89  
Snow  
Snow 0.00 in 0.00 in - ()
Month to date snowfall 0.0 0.0  
Since 1 July snowfall 43.9 42.1  
Snow Depth 0.00 in    
Sea Level Pressure  
Sea Level Pressure 29.84 in    
Wind  
Wind Speed 4 mph (ESE)    
Max Wind Speed 15 mph    
Max Gust Speed 22 mph    
Visibility 10 miles    
Events      
T = Trace of Precipitation, MM = Missing Value Source: NWS Daily Summary

Daily Weather History Graph

Daily Weather History Graph

Search for Another Location

Airport:

Trip Planner

Search our weather history database for the weather conditions in past years. The results will help you decide how hot, cold, wet, or windy it might be!

Date:

Astronomy

Jun. 26, 2013 Rise Set
Actual Time 5:20 AM MDT 8:33 PM MDT
Civil Twilight 4:46 AM MDT 9:07 PM MDT
Nautical Twilight 4:02 AM MDT 9:52 PM MDT
Astronomical Twilight 3:09 AM MDT 10:45 PM MDT
Moon 10:53 PM MDT (6/26) 9:19 AM MDT (6/26)
Length of Visible Light 16h 21m
Length of Day
15h 12m
Waning Gibbous, 85% of the Moon is Illuminated
Jun 26
Waning Gibbous
Jun 29
Last Quarter
Jul 8
New
Jul 15
First Quarter
Jul 22
Full

Hourly Weather History & Observations

Time (MDT) Temp. Heat Index Dew Point Humidity Pressure Visibility Wind Dir Wind Speed Gust Speed Precip Events Conditions
12:53 AM 66.0 °F - 55.9 °F 70% 29.80 in 10.0 mi East 6.9 mph - N/A   Clear
1:53 AM 63.0 °F - 55.9 °F 78% 29.81 in 10.0 mi ENE 4.6 mph - N/A   Clear
2:53 AM 60.1 °F - 55.0 °F 83% 29.82 in 10.0 mi SW 3.5 mph - N/A   Clear
3:53 AM 59.0 °F - 55.0 °F 87% 29.84 in 10.0 mi NNE 4.6 mph - N/A   Clear
4:53 AM 57.0 °F - 54.0 °F 89% 29.86 in 10.0 mi Calm Calm - N/A   Clear
5:53 AM 57.0 °F - 54.0 °F 89% 29.88 in 10.0 mi Calm Calm - N/A   Clear
6:53 AM 63.0 °F - 57.0 °F 81% 29.88 in 10.0 mi Calm Calm - N/A   Clear
7:53 AM 69.1 °F - 57.9 °F 68% 29.89 in 10.0 mi Calm Calm - N/A   Clear
8:53 AM 75.9 °F - 52.0 °F 43% 29.89 in 10.0 mi Calm Calm - N/A   Clear
9:53 AM 82.0 °F - 52.0 °F 35% 29.88 in 10.0 mi Calm Calm - N/A   Clear
10:53 AM 86.0 °F - 51.1 °F 30% 29.88 in 10.0 mi NW 3.5 mph - N/A   Clear
11:53 AM 91.0 °F - 51.1 °F 25% 29.87 in 10.0 mi Calm Calm - N/A   Clear
12:53 PM 91.9 °F - 48.0 °F 22% 29.85 in 10.0 mi SW 5.8 mph - N/A   Clear
1:53 PM 95.0 °F - 46.0 °F 19% 29.83 in 10.0 mi Variable 3.5 mph - N/A   Clear
2:53 PM 96.1 °F - 45.0 °F 17% 29.83 in 10.0 mi SW 9.2 mph - N/A   Clear
3:53 PM 96.1 °F - 46.9 °F 19% 29.82 in 10.0 mi Variable 3.5 mph - N/A   Clear
4:53 PM 96.1 °F - 46.0 °F 18% 29.82 in 10.0 mi Variable 3.5 mph - N/A   Clear
5:53 PM 96.1 °F - 45.0 °F 17% 29.81 in 10.0 mi South 5.8 mph - N/A   Clear
6:53 PM 91.9 °F - 48.9 °F 23% 29.80 in 10.0 mi SE 4.6 mph - N/A   Clear
7:53 PM 86.0 °F 84.5 °F 55.0 °F 35% 29.80 in 10.0 mi ESE 5.8 mph - N/A   Clear
8:53 PM 78.1 °F - 55.9 °F 46% 29.82 in 10.0 mi East 6.9 mph - N/A   Clear
9:53 PM 75.0 °F - 57.0 °F 53% 29.83 in 10.0 mi East 8.1 mph - N/A   Clear
10:53 PM 75.9 °F - 54.0 °F 46% 29.83 in 10.0 mi East 6.9 mph - N/A   Clear
11:53 PM 71.1 °F - 55.0 °F 57% 29.84 in 10.0 mi North 6.9 mph - N/A   Clear